Atlanta, NE

9:05 PM CDT on August 25, 2016 (GMT -0500)
Brewster

Weather History for KHDE - November, 2012

Change the Weather History Date:

Sunday, November 18, 2012

  Actual Average Record
Temperature  
Mean Temperature 50 °F -  
Max Temperature 61 °F 48 °F 69 °F (1976)
Min Temperature 38 °F 26 °F 5 °F (2014)
Degree Days  
Heating Degree Days 16    
Moisture  
Dew Point 34 °F    
Average Humidity 65    
Maximum Humidity 84    
Minimum Humidity 38    
Precipitation  
Precipitation 0.00 in - - ()
Sea Level Pressure  
Sea Level Pressure 29.99 in    
Wind  
Wind Speed 9 mph (South)    
Max Wind Speed 16 mph    
Max Gust Speed 24 mph    
Visibility 10 miles    
Events      
Averages and records for this station are not official NWS values.
T = Trace of Precipitation, MM = Missing Value Source: NWS Daily Summary

Daily Weather History Graph

Daily Weather History Graph

Search for Another Location

Airport or City:

Trip Planner

Search our weather history database for the weather conditions in past years. The results will help you decide how hot, cold, wet, or windy it might be!

Date:

Astronomy

Nov. 18, 2012 Rise Set
Actual Time 7:27 AM CST 5:17 PM CST
Civil Twilight 6:58 AM CST 5:46 PM CST
Nautical Twilight 6:24 AM CST 6:19 PM CST
Astronomical Twilight 5:52 AM CST 6:52 PM CST
Moon 11:55 AM CST (11/18) 10:39 PM CST (11/18)
Length of Visible Light 10h 48m
Length of Day
9h 49m
Waxing Crescent, 30% of the Moon is Illuminated
Nov 18
Waxing Crescent
Nov 20
First Quarter
Nov 28
Full
Dec 6
Last Quarter
Dec 13
New

Hourly Weather History & Observations

Time (CST) Temp. Windchill Dew Point Humidity Pressure Visibility Wind Dir Wind Speed Gust Speed Precip Events Conditions
12:15 AM 41.9 °F 36.9 °F 34.7 °F 76% 30.06 in 10.0 mi South 8.1 mph - N/A   Clear
12:35 AM 42.4 °F 37.5 °F 34.7 °F 74% 30.06 in 10.0 mi South 8.1 mph - N/A   Clear
12:55 AM 42.3 °F 37.3 °F 35.2 °F 76% 30.05 in 10.0 mi South 8.1 mph - N/A   Clear
1:15 AM 43.2 °F 37.9 °F 35.8 °F 75% 30.04 in 10.0 mi South 9.2 mph - N/A   Clear
1:35 AM 42.8 °F 37.5 °F 36.0 °F 77% 30.04 in 10.0 mi South 9.2 mph - N/A   Clear
1:55 AM 42.4 °F 36.5 °F 36.0 °F 78% 30.04 in 10.0 mi South 10.4 mph - N/A   Clear
2:15 AM 42.4 °F 37.5 °F 35.6 °F 77% 30.04 in 10.0 mi South 8.1 mph - N/A   Clear
2:35 AM 40.6 °F 36.0 °F 34.9 °F 80% 30.03 in 10.0 mi South 6.9 mph - N/A   Clear
2:55 AM 40.3 °F 36.3 °F 34.9 °F 81% 30.04 in 10.0 mi South 5.8 mph - N/A   Clear
3:15 AM 40.3 °F 35.5 °F 34.9 °F 81% 30.04 in 10.0 mi South 6.9 mph - N/A   Clear
3:35 AM 40.3 °F 36.3 °F 34.9 °F 81% 30.03 in 10.0 mi South 5.8 mph - N/A   Clear
3:55 AM 40.1 °F 35.3 °F 35.2 °F 83% 30.02 in 10.0 mi South 6.9 mph - N/A   Clear
4:15 AM 41.5 °F 35.4 °F 35.8 °F 80% 30.02 in 10.0 mi South 10.4 mph - N/A   Clear
4:35 AM 40.6 °F 33.4 °F 35.1 °F 80% 30.02 in 10.0 mi South 12.7 mph - N/A   Clear
4:55 AM 40.1 °F 34.1 °F 34.7 °F 81% 30.02 in 10.0 mi South 9.2 mph - N/A   Clear
5:15 AM 39.4 °F 33.2 °F 34.3 °F 82% 30.02 in 10.0 mi SSE 9.2 mph - N/A   Clear
5:35 AM 38.3 °F 32.5 °F 33.8 °F 84% 30.02 in 10.0 mi SSE 8.1 mph - N/A   Clear
5:55 AM 38.1 °F 32.3 °F 33.3 °F 83% 30.02 in 10.0 mi SSE 8.1 mph - N/A   Clear
6:15 AM 39.2 °F 33.6 °F 34.3 °F 83% 30.02 in 10.0 mi South 8.1 mph - N/A   Clear
6:35 AM 39.2 °F 32.5 °F 33.8 °F 81% 30.02 in 10.0 mi South 10.4 mph - N/A   Clear
6:55 AM 40.1 °F 34.1 °F 33.8 °F 78% 30.02 in 10.0 mi SSE 9.2 mph - N/A   Clear
7:15 AM 39.0 °F 32.8 °F 32.9 °F 79% 30.02 in 10.0 mi South 9.2 mph - N/A   Clear
7:35 AM 40.3 °F 34.9 °F 33.1 °F 75% 30.02 in 10.0 mi SSE 8.1 mph - N/A   Clear
7:55 AM 40.1 °F 34.7 °F 33.1 °F 76% 30.04 in 10.0 mi SSE 8.1 mph - N/A   Clear
8:15 AM 41.4 °F 37.6 °F 32.7 °F 71% 30.04 in 10.0 mi SSE 5.8 mph - N/A   Clear
8:35 AM 41.2 °F 36.6 °F 32.4 °F 71% 30.04 in 10.0 mi South 6.9 mph - N/A   Clear
8:55 AM 42.3 °F 35.5 °F 32.0 °F 67% 30.02 in 10.0 mi SSE 12.7 mph - N/A   Clear
9:15 AM 43.2 °F 36.6 °F 31.6 °F 64% 30.01 in 10.0 mi SSE 12.7 mph 18.4 mph N/A   Clear
9:35 AM 45.0 °F 39.3 °F 31.8 °F 60% 30.01 in 10.0 mi South 11.5 mph - N/A   Clear
9:55 AM 46.8 °F - 31.8 °F 56% 30.01 in 10.0 mi South 13.8 mph 20.7 mph N/A   Clear
10:15 AM 48.2 °F - 31.6 °F 53% 30.01 in 10.0 mi South 12.7 mph 18.4 mph N/A   Clear
10:35 AM 49.1 °F - 31.1 °F 50% 30.01 in 10.0 mi South 15.0 mph 21.9 mph N/A   Clear
10:55 AM 50.0 °F - 31.1 °F 48% 30.01 in 10.0 mi South 16.1 mph 20.7 mph N/A   Clear
11:15 AM 50.9 °F - 31.3 °F 47% 30.01 in 10.0 mi South 12.7 mph - N/A   Clear
11:35 AM 51.4 °F - 32.0 °F 47% 30.00 in 10.0 mi South 12.7 mph 20.7 mph N/A   Clear
11:55 AM 52.7 °F - 32.0 °F 45% 29.99 in 10.0 mi South 16.1 mph - N/A   Clear
12:15 PM 54.5 °F - 32.9 °F 44% 29.98 in 10.0 mi South 13.8 mph 19.6 mph N/A   Clear
12:35 PM 55.0 °F - 33.1 °F 43% 29.96 in 10.0 mi South 16.1 mph 19.6 mph N/A   Clear
12:55 PM 54.9 °F - 33.1 °F 44% 29.96 in 10.0 mi South 13.8 mph 19.6 mph N/A   Clear
1:15 PM 56.1 °F - 33.1 °F 42% 29.95 in 10.0 mi South 16.1 mph 24.2 mph N/A   Clear
1:35 PM 55.9 °F - 33.6 °F 43% 29.94 in 10.0 mi South 15.0 mph - N/A   Clear
1:55 PM 58.1 °F - 33.8 °F 40% 29.93 in 10.0 mi South 13.8 mph 20.7 mph N/A   Clear
2:15 PM 60.4 °F - 34.9 °F 38% 29.93 in 10.0 mi South 13.8 mph 19.6 mph N/A   Clear
2:35 PM 60.6 °F - 36.0 °F 40% 29.93 in 10.0 mi South 12.7 mph - N/A   Clear
2:55 PM 59.9 °F - 36.7 °F 42% 29.93 in 10.0 mi South 12.7 mph 18.4 mph N/A   Clear
3:15 PM 61.0 °F - 37.4 °F 42% 29.93 in 10.0 mi South 15.0 mph - N/A   Clear
3:35 PM 61.0 °F - 37.4 °F 42% 29.93 in 10.0 mi South 15.0 mph - N/A   Clear
3:55 PM 60.8 °F - 37.4 °F 42% 29.94 in 10.0 mi South 11.5 mph - N/A   Clear
4:15 PM 60.1 °F - 37.4 °F 43% 29.94 in 10.0 mi South 10.4 mph - N/A   Clear
4:35 PM 59.2 °F - 37.6 °F 45% 29.94 in 10.0 mi South 9.2 mph - N/A   Clear
4:55 PM 57.2 °F - 37.4 °F 48% 29.94 in 10.0 mi South 6.9 mph - N/A   Clear
5:15 PM 54.0 °F - 36.9 °F 52% 29.95 in 10.0 mi SSE 5.8 mph - N/A   Clear
5:35 PM 51.3 °F - 36.5 °F 57% 29.95 in 10.0 mi South 8.1 mph - N/A   Clear
5:55 PM 50.7 °F - 36.7 °F 59% 29.96 in 10.0 mi South 5.8 mph - N/A   Clear
6:15 PM 49.3 °F - 36.5 °F 61% 29.96 in 10.0 mi SSE 6.9 mph - N/A   Clear
6:35 PM 46.6 °F - 36.0 °F 67% 29.96 in 10.0 mi SSE 4.6 mph - N/A   Clear
6:55 PM 42.8 °F 38.0 °F 34.0 °F 71% 29.96 in 10.0 mi SE 8.1 mph - N/A   Clear
7:15 PM 43.5 °F 39.4 °F 34.2 °F 70% 29.97 in 10.0 mi SE 6.9 mph - N/A   Clear
7:35 PM 44.6 °F 40.2 °F 35.2 °F 70% 29.97 in 10.0 mi SSE 8.1 mph - N/A   Clear
7:55 PM 43.0 °F 38.8 °F 34.3 °F 72% 29.97 in 10.0 mi South 6.9 mph - N/A   Clear
8:15 PM 43.3 °F 38.6 °F 34.3 °F 71% 29.97 in 10.0 mi South 8.1 mph - N/A   Clear
8:35 PM 43.0 °F 37.7 °F 34.3 °F 72% 29.97 in 10.0 mi South 9.2 mph - N/A   Clear
8:55 PM 42.1 °F 37.7 °F 34.0 °F 73% 29.97 in 10.0 mi SSE 6.9 mph - N/A   Clear
9:15 PM 43.5 °F 38.3 °F 34.9 °F 72% 29.97 in 10.0 mi SSE 9.2 mph - N/A   Clear
9:35 PM 42.4 °F 38.1 °F 34.2 °F 72% 29.97 in 10.0 mi South 6.9 mph - N/A   Clear
9:55 PM 41.5 °F 37.1 °F 33.8 °F 74% 29.98 in 10.0 mi South 6.9 mph - N/A   Clear
10:35 PM 41.7 °F 37.3 °F 33.8 °F 73% 29.97 in 10.0 mi SSW 6.9 mph - N/A   Clear
10:55 PM 41.7 °F 36.7 °F 34.2 °F 75% 29.97 in 10.0 mi SSW 8.1 mph - N/A   Clear
11:15 PM 39.9 °F 35.1 °F 33.3 °F 77% 29.97 in 10.0 mi SW 6.9 mph - N/A   Clear
11:35 PM 39.4 °F 35.2 °F 33.6 °F 80% 29.97 in 10.0 mi SW 5.8 mph - N/A   Clear
11:55 PM 40.3 °F 37.1 °F 34.7 °F 80% 29.97 in 10.0 mi SW 4.6 mph - N/A   Clear